This is the latest recevied weather packets stored in our database for station/object OE6ACM-10. If no packets are shown the sender has not sent any weather packets the latest 10 day(s).
| Time | Temp. | Humidity | Pressure | Rain* | Wind** | Luminosity | Snow |
|---|---|---|---|---|---|---|---|
| 1787750597 | 32.78° C | 100% | 928.9 hPa | - | - | - | - |
| 1787750297 | 32.78° C | 100% | 928.7 hPa | - | - | - | - |
| 1787749997 | 33.89° C | 100% | 928.8 hPa | - | - | - | - |
| 1787749697 | 34.44° C | 100% | 928.8 hPa | - | - | - | - |
| 1787749397 | 35° C | 100% | 928.7 hPa | - | - | - | - |
| 1787749097 | 35° C | 100% | 928.7 hPa | - | - | - | - |
| 1787748797 | 35.56° C | 100% | 928.7 hPa | - | - | - | - |
| 1787748497 | 35° C | 100% | 928.7 hPa | - | - | - | - |
| 1787748197 | 35° C | 100% | 928.7 hPa | - | - | - | - |
| 1787747897 | 35° C | 100% | 928.7 hPa | - | - | - | - |
| 1787747597 | 33.89° C | 100% | 928.8 hPa | - | - | - | - |
| 1787747297 | 34.44° C | 100% | 928.8 hPa | - | - | - | - |
| 1787746997 | 34.44° C | 100% | 928.8 hPa | - | - | - | - |
| 1787746697 | 35° C | 100% | 928.9 hPa | - | - | - | - |
| 1787746397 | 35.56° C | 100% | 928.8 hPa | - | - | - | - |
| 1787746097 | 36.11° C | 100% | 928.8 hPa | - | - | - | - |
| 1787745797 | 35° C | 100% | 928.9 hPa | - | - | - | - |
| 1787745497 | 34.44° C | 100% | 928.9 hPa | - | - | - | - |
| 1787745197 | 33.89° C | 100% | 928.9 hPa | - | - | - | - |
| 1787744897 | 32.22° C | 100% | 928.9 hPa | - | - | - | - |
| 1787744597 | 31.11° C | 100% | 928.9 hPa | - | - | - | - |
| 1787744297 | 31.11° C | 100% | 929 hPa | - | - | - | - |
| 1787743997 | 30.56° C | 100% | 929 hPa | - | - | - | - |
| 1787743697 | 30.56° C | 100% | 929 hPa | - | - | - | - |
| 1787743397 | 31.11° C | 100% | 929.1 hPa | - | - | - | - |
* Rain since midnight (hover to see other rain measurements)
** Current wind speed in m/s (hover to see current wind gust speed)